TimeEDT,TemperatureF,Dew PointF,Humidity,Sea Level PressureIn,VisibilityMPH,Wind Direction,Wind SpeedMPH,Gust SpeedMPH,PrecipitationIn,Events,Conditions,WindDirDegrees,DateUTC
12:51 AM,70.0,53.1,55,30.06,10.0,South,5.8,-,N/A,,Overcast,190,2013-10-04 04:51:00
1:51 AM,69.1,54.0,58,30.06,10.0,Calm,Calm,-,N/A,,Mostly Cloudy,0,2013-10-04 05:51:00
2:51 AM,69.1,55.0,61,30.05,10.0,South,3.5,-,N/A,,Overcast,180,2013-10-04 06:51:00
3:51 AM,68.0,55.9,65,30.04,10.0,Calm,Calm,-,N/A,,Scattered Clouds,0,2013-10-04 07:51:00
4:51 AM,68.0,55.9,65,30.04,10.0,Calm,Calm,-,N/A,,Scattered Clouds,0,2013-10-04 08:51:00
5:51 AM,68.0,57.0,68,30.04,10.0,Calm,Calm,-,N/A,,Mostly Cloudy,0,2013-10-04 09:51:00
6:51 AM,68.0,57.9,70,30.04,9.0,South,5.8,-,N/A,,Scattered Clouds,180,2013-10-04 10:51:00
7:51 AM,68.0,59.0,73,30.05,7.0,SSW,4.6,-,N/A,,Scattered Clouds,210,2013-10-04 11:51:00
8:51 AM,72.0,60.1,66,30.06,5.0,Calm,Calm,-,N/A,,Haze,0,2013-10-04 12:51:00
9:51 AM,73.9,61.0,64,30.06,5.0,SW,3.5,-,N/A,,Haze,230,2013-10-04 13:51:00
10:51 AM,77.0,62.1,60,30.05,6.0,Calm,Calm,-,N/A,,Haze,0,2013-10-04 14:51:00
11:51 AM,79.0,61.0,54,30.03,7.0,SW,6.9,-,N/A,,Mostly Cloudy,220,2013-10-04 15:51:00
12:51 PM,82.0,61.0,49,30.01,10.0,SW,10.4,-,N/A,,Mostly Cloudy,220,2013-10-04 16:51:00
1:51 PM,84.9,60.1,43,29.98,10.0,SSW,11.5,18.4,N/A,,Mostly Cloudy,210,2013-10-04 17:51:00
2:51 PM,84.9,60.1,43,29.97,10.0,WSW,9.2,-,N/A,,Mostly Cloudy,240,2013-10-04 18:51:00
3:51 PM,82.9,62.1,49,29.96,10.0,South,13.8,19.6,0.00,,Scattered Clouds,170,2013-10-04 19:51:00
4:51 PM,81.0,62.1,52,29.96,10.0,South,10.4,-,N/A,,Scattered Clouds,180,2013-10-04 20:51:00
5:51 PM,79.0,61.0,54,29.98,10.0,Variable,6.9,-,N/A,,Mostly Cloudy,0,2013-10-04 21:51:00
6:51 PM,75.9,63.0,64,29.99,10.0,SSE,8.1,-,0.03,,Mostly Cloudy,150,2013-10-04 22:51:00
7:51 PM,75.9,63.0,64,29.99,10.0,Variable,4.6,-,N/A,,Mostly Cloudy,0,2013-10-04 23:51:00
8:51 PM,73.0,64.0,73,30.01,9.0,NE,9.2,-,N/A,,Mostly Cloudy,50,2013-10-05 00:51:00
9:51 PM,70.0,64.9,84,30.01,8.0,NNE,4.6,-,N/A,,Mostly Cloudy,30,2013-10-05 01:51:00
10:51 PM,69.1,66.0,90,30.01,5.0,NE,9.2,-,N/A,,Mostly Cloudy,40,2013-10-05 02:51:00
11:18 PM,68.0,64.4,88,30.02,6.0,NNE,11.5,-,N/A,,Mostly Cloudy,30,2013-10-05 03:18:00
11:51 PM,68.0,63.0,84,30.01,10.0,NE,12.7,-,N/A,,Scattered Clouds,50,2013-10-05 03:51:00